TimeMDT,TemperatureF,Dew PointF,Humidity,Sea Level PressureIn,VisibilityMPH,Wind Direction,Wind SpeedMPH,Gust SpeedMPH,PrecipitationIn,Events,Conditions,WindDirDegrees,DateUTC
12:51 AM,70.0,51.1,51,29.94,9.0,ENE,16.1,-,N/A,,Clear,60,2013-07-08 06:51:00
1:51 AM,70.0,52.0,53,29.92,9.0,NE,20.7,-,N/A,,Clear,50,2013-07-08 07:51:00
2:51 AM,69.1,53.1,57,29.90,9.0,NE,21.9,-,N/A,,Clear,40,2013-07-08 08:51:00
3:51 AM,68.0,53.1,59,29.92,9.0,NE,16.1,-,N/A,,Clear,50,2013-07-08 09:51:00
4:51 AM,66.9,54.0,63,29.93,9.0,ENE,18.4,-,N/A,,Clear,60,2013-07-08 10:51:00
5:51 AM,64.9,55.0,70,29.94,9.0,NE,26.5,-,N/A,,Clear,50,2013-07-08 11:51:00
6:51 AM,66.9,55.9,68,29.97,8.0,NE,18.4,-,N/A,,Clear,50,2013-07-08 12:51:00
7:51 AM,70.0,55.9,61,29.99,8.0,ENE,16.1,-,N/A,,Clear,70,2013-07-08 13:51:00
8:51 AM,72.0,55.9,57,30.01,8.0,ENE,17.3,-,N/A,,Clear,70,2013-07-08 14:51:00
9:51 AM,75.9,55.9,50,30.01,8.0,ENE,15.0,-,N/A,,Clear,70,2013-07-08 15:51:00
10:51 AM,77.0,55.0,47,30.02,8.0,ENE,11.5,23.0,N/A,,Clear,70,2013-07-08 16:51:00
11:51 AM,81.0,54.0,39,30.01,8.0,East,15.0,26.5,N/A,,Clear,80,2013-07-08 17:51:00
12:51 PM,81.0,55.0,41,30.00,8.0,East,19.6,29.9,N/A,,Clear,80,2013-07-08 18:51:00
1:51 PM,82.9,53.1,36,29.98,8.0,East,17.3,28.8,N/A,,Clear,80,2013-07-08 19:51:00
2:51 PM,86.0,51.1,30,29.96,8.0,East,18.4,28.8,N/A,,Partly Cloudy,80,2013-07-08 20:51:00
3:51 PM,84.9,50.0,30,29.95,8.0,ENE,13.8,25.3,N/A,,Clear,70,2013-07-08 21:51:00
4:51 PM,86.0,51.1,30,29.93,8.0,East,17.3,29.9,N/A,,Partly Cloudy,90,2013-07-08 22:51:00
5:51 PM,84.0,51.1,32,29.92,8.0,East,24.2,33.4,N/A,,Partly Cloudy,80,2013-07-08 23:51:00
6:51 PM,82.0,51.1,34,29.93,8.0,East,29.9,34.5,N/A,,Partly Cloudy,80,2013-07-09 00:51:00
7:51 PM,79.0,53.1,40,29.95,8.0,East,23.0,32.2,N/A,,Clear,80,2013-07-09 01:51:00
8:51 PM,75.9,55.0,48,29.98,9.0,East,23.0,-,N/A,,Clear,90,2013-07-09 02:51:00
9:51 PM,75.0,54.0,48,29.99,9.0,ENE,21.9,-,N/A,,Clear,70,2013-07-09 03:51:00
10:51 PM,72.0,55.9,57,30.01,9.0,ENE,23.0,-,N/A,,Clear,70,2013-07-09 04:51:00
11:51 PM,70.0,57.0,63,30.01,9.0,ENE,25.3,33.4,N/A,,Clear,60,2013-07-09 05:51:00